Lionhead Wind

Located on Lionhead Ridge near West Yellowstone. Use the nearest SNOTEL station for snow depth data: Madison Plateau. The data on this page is also available to view at dataGarrison.com.

Elevation
8775ft
Jump to table bottom
Date Time Temperature
deg F
RH, % Wind Speed Wind Gust Wind Direction
01/26/22 03:08 11.5 72 14 21 W - 274
01/26/22 02:08 10.4 74 7 20 NW - 302
01/26/22 01:08 9.6 77 5 21 NW - 310
01/26/22 00:08 8.8 81 7 19 NW - 299
01/25/22 23:08 8.1 83 11 20 W - 277
01/25/22 22:08 8.5 81 14 24 W - 261
01/25/22 21:08 9.7 78 17 27 W - 254
01/25/22 20:08 9.2 84 11 17 W - 251
01/25/22 19:08 9.3 90 12 20 W - 263
01/25/22 18:08 9.2 91 14 20 W - 258
01/25/22 17:08 10.0 90 18 24 W - 254
01/25/22 16:08 12.2 89 11 23 W - 261
01/25/22 15:08 14.8 90 3 16 N - 15
01/25/22 14:08 15.3 91 2 10 SW - 209
01/25/22 13:08 14.4 91 3 6 E - 74
01/25/22 12:08 16.0 91 2 9 S - 192
01/25/22 11:08 10.7 91 5 12 N - 20
01/25/22 10:08 11.1 91 5 14 NE - 28
01/25/22 09:08 9.3 92 10 18 N - 7
01/25/22 08:08 7.3 92 11 23 N - 4
01/25/22 07:08 8.0 92 11 21 N - 14
01/25/22 06:08 8.2 92 15 28 N - 17
01/25/22 05:08 7.8 92 17 29 N - 8
01/25/22 04:08 7.9 92 18 32 N - 3
01/25/22 03:08 7.7 92 16 37 N - 355
01/25/22 02:08 8.1 92 17 29 N - 0
01/25/22 01:08 9.3 93 15 27 N - 10
01/25/22 00:08 9.6 93 15 25 N - 1
01/24/22 23:08 10.7 93 14 24 N - 4
01/24/22 22:08 10.6 93 14 26 N - 7
01/24/22 21:08 11.4 93 14 22 N - 355
01/24/22 20:08 12.3 93 8 18 N - 8
01/24/22 19:08 11.2 92 7 11 NE - 41
01/24/22 18:08 12.8 92 3 7 N - 1
01/24/22 17:08 13.6 92 3 7 N - 15
01/24/22 16:08 12.6 89 2 6 N - 355
01/24/22 15:08 15.6 84 2 10 NW - 313
01/24/22 14:08 18.2 65 4 14 NW - 307
01/24/22 13:08 18.7 55 3 12 NW - 321
01/24/22 12:08 25.4 67 10 20 W - 274
01/24/22 11:08 12.8 61 10 22 W - 261
01/24/22 10:08 21.0 51 4 17 NW - 303
01/24/22 09:08 22.0 50 4 19 W - 289
01/24/22 08:08 18.2 53 7 24 W - 288
01/24/22 07:08 15.6 53 9 25 W - 281
01/24/22 06:08 17.4 52 9 24 W - 284
01/24/22 05:08 18.4 53 6 24 W - 285
01/24/22 04:08 18.0 53 6 26 NW - 299
01/24/22 03:08 18.7 50 4 16 SW - 247
01/24/22 02:08 18.8 51 6 20 W - 285